sat.trackr.live / text

‹ back to catalog

STARLINK-32250

NORAD 60425 · 2024-144A

PAYLOAD ACTIVE UNKNOWN

§ Identity

Operator
Country
US
Launch date
2024-08-12
Launch site
AFETR
Launch vehicle
Mass (kg)
RCS (m²)

Purposes: comms

External: N2YO · Heavens-Above · Gunter

§ Orbital elements

Epoch: 2026-05-25T05:26:46.408128Z

Period
94.11 min
Inclination
53.1604°
Eccentricity
0.0001134
Mean motion
15.30198766 rev/d
Perigee alt
474.4 km
Apogee alt
476.0 km
Semi-major
6,853.4 km
B*
4.4294e-5
RAAN
221.8897°
Arg perigee
73.3231°
Mean anomaly
286.7894°
Rev number
10,012

§ Raw data

STARLINK-322501 60425U 24144A   26145.22692602  .00000953  00000+0  44294-4 0  99922 60425  53.1604 221.8897 0001134  73.3231 286.7894 15.30198766100127

JSON: /api/v1/satellites/60425 · /tle

For live sub-satellite position, see the globe view (requires WebGL).

§ Visibility from observer

Set your observer location to see the next 7 days of passes ≥ 10°. The values pass through the URL so the page stays shareable.

No JS? Fill the form by hand. The geolocation button needs JavaScript.